Regional Weather Roundup
Issued by NWS Albany, NY

Home | Current Version | Previous Version | Text Only | Print | Product List | Glossary On
Versions: 1 2 3 4 5 6 7 8 9 10 11 12 13 14 15 16 17 18 19 20 21 22 23 24 25 26 27 28 29 30 31 32 33 34 35 36 37 38 39 40 41 42 43 44 45 46 47 48 49 50
000
ASUS41 KALY 210010
RWRALY

NEW YORK STATE HOURLY WEATHER ROUNDUP
NATIONAL WEATHER SERVICE ALBANY NY
700 PM EST SAT DEC 20 2014

NOTE: "FAIR" INDICATES FEW OR NO CLOUDS BELOW 12,000 FEET WITH NO
SIGNIFICANT WEATHER AND/OR NO OBSTRUCTIONS TO VISIBILITY.

NYZ032-033-038>043-046>054-057>066-NYZ062>081-210100-
EAST


CITY           SKY/WX    TMP DP  RH WIND       PRES   REMARKS
ALBANY         CLOUDY    29  18  63 CALM      30.32R
GLENS FALLS    CLEAR     21  15  78 CALM      30.31R
POUGHKEEPSIE   CLOUDY    30  20  66 CALM      30.30R
NEWBURGH       CLOUDY    28  23  80 VRB5      30.29  WCI  23
MONTGOMERY     CLOUDY    29  22  75 N7        30.28R WCI  22
WHITE PLAINS   CLOUDY    30  20  66 N7        30.26S WCI  23
ISLIP          CLOUDY    33  23  66 CALM      30.27R
NEW YORK CITY  CLOUDY    33  21  61 NE8       30.29R WCI  26
CENTRAL PARK   CLOUDY    32  19  58 VRB7      30.30S WCI  26
$$

NYZ005>009-017-018-044>046-055-056-210100-
CENTRAL


CITY           SKY/WX    TMP DP  RH WIND       PRES   REMARKS
FULTON         PTCLDY    23  19  85 CALM      30.29S
SYRACUSE       PTCLDY    23  21  92 NE3       30.30R
ROME           CLOUDY    24  18  77 E5        30.32R WCI  18
ELMIRA         CLOUDY    29  22  75 NE6       30.25S WCI  23
BINGHAMTON     CLOUDY    25  20  81 CALM      30.21R
MONTICELLO     CLOUDY    25  18  74 W5        30.23S WCI  19
$$

NYZ026>034-041>043-210100-
NORTH


CITY           SKY/WX    TMP DP  RH WIND       PRES   REMARKS
WATERTOWN      CLEAR     21  13  71 CALM      30.31R
FORT DRUM      NOT AVBL
MASSENA        PTCLDY    15  13  91 CALM      30.34R
SARANAC LAKE   MOCLDY    12  10  92 CALM      30.19R
PLATTSBURGH    CLEAR     14  11  87 N6        30.32F WCI   5
$$

NYZ001>004-010>016-019>021-210100-
WEST


CITY           SKY/WX    TMP DP  RH WIND       PRES   REMARKS
NIAGARA FALLS  CLOUDY    29  22  75 CALM      30.27R
BUFFALO        MOCLDY    29  21  72 CALM      30.27R
DUNKIRK        CLOUDY    30  23  75 S5        30.27S WCI  25
JAMESTOWN      CLOUDY    25  18  74 CALM      30.21F
WELLSVILLE     CLOUDY    24  18  77 W3        30.20R
ROCHESTER      CLOUDY    30  21  69 NE3       30.28S
PENN YAN       CLOUDY    28  21  75 CALM      30.26S
$$

             KEY
       WCI = WIND CHILL INDEX
       VSB = VISIBILITY
       HX  = HEAT INDEX
$$


USA.gov is the U.S. government's official web portal to all federal, state and local government web resources and services.